GW4413 Weather Reports


Display with metric or nautical units.
time (UTC)temp
F
wind
direction
speed
MPH
gust
MPH
rain 1hr
in
rain 24hr
in
rain mn
in
humidity
%
barometer
mb
20260905022505 62 317 0.0 0.0 0.00 0.07 0.07 73 1016.0
20260905022013 62 317 0.0 0.0 0.00 0.07 0.07 73 1016.1
20260905021527 62 317 0.0 0.0 0.00 0.07 0.07 72 1016.1
20260905021007 62 317 0.0 0.0 0.00 0.07 0.07 72 1016.0
20260905020513 62 317 0.0 0.0 0.00 0.07 0.07 71 1016.0
20260905020038 62 317 0.0 0.0 0.00 0.07 0.07 71 1016.0
20260905015506 62 317 0.0 0.0 0.00 0.07 0.07 72 1015.9
20260905015016 62 317 0.0 0.0 0.00 0.07 0.07 72 1016.0
20260905014522 62 317 0.0 0.0 0.00 0.07 0.07 71 1016.0
20260905014003 62 317 0.0 0.0 0.00 0.07 0.07 71 1015.9
20260905013513 62 317 0.0 1.0 0.00 0.07 0.07 71 1015.9
20260905013031 62 317 0.0 1.0 0.00 0.07 0.07 71 1015.9
20260905012506 63 317 0.0 1.0 0.00 0.07 0.07 71 1015.8
20260905012016 62 317 0.0 1.0 0.00 0.07 0.07 70 1015.7
20260905011531 63 317 0.0 1.0 0.00 0.07 0.07 69 1015.7
20260905011004 63 317 0.0 1.0 0.00 0.07 0.07 69 1015.6
20260905010516 63 317 0.0 1.0 0.00 0.07 0.07 69 1015.5
20260905010023 63 317 0.0 1.0 0.00 0.07 0.07 69 1015.5
20260905005506 63 317 0.0 1.0 0.00 0.07 0.07 69 1015.4
20260905005016 63 317 0.0 1.0 0.00 0.07 0.07 69 1015.4
20260905004523 63 317 0.0 2.0 0.00 0.07 0.07 69 1015.3
20260905004004 63 317 0.0 2.0 0.00 0.07 0.07 68 1015.3
20260905003515 63 317 0.0 2.0 0.00 0.07 0.07 67 1015.2
20260905003030 63 317 0.0 1.0 0.00 0.07 0.07 66 1015.2
20260905002507 63 317 0.0 1.0 0.00 0.07 0.07 67 1015.1
20260905002015 63 317 0.0 2.0 0.00 0.07 0.07 67 1015.0
20260905001524 63 317 0.0 2.0 0.00 0.07 0.07 67 1015.1
20260905001003 63 317 0.0 2.0 0.00 0.07 0.07 68 1015.1
20260905000514 63 317 0.0 2.0 0.00 0.07 0.07 68 1015.0
20260905000025 63 317 0.0 2.0 0.00 0.07 0.07 67 1015.0
20260904235516 63 317 0.0 3.0 0.00 0.07 0.07 66 1015.0
20260904235016 63 317 1.0 3.0 0.00 0.07 0.07 68 1015.1
20260904234523 63 317 0.0 2.0 0.00 0.07 0.07 67 1015.1
20260904234017 63 317 0.0 2.0 0.00 0.07 0.07 68 1015.0
20260904233514 63 333 1.0 2.0 0.00 0.07 0.07 67 1015.1
20260904233023 63 333 0.0 2.0 0.00 0.07 0.07 67 1015.0
20260904232518 63 316 0.0 2.0 0.00 0.07 0.07 68 1015.0
20260904232016 63 31 0.0 2.0 0.00 0.07 0.07 68 1015.0
20260904231524 63 31 1.0 2.0 0.00 0.07 0.07 68 1015.0
20260904231018 63 348 0.0 2.0 0.00 0.07 0.07 69 1014.9
20260904230517 63 348 1.0 2.0 0.00 0.07 0.07 68 1015.0
20260904230025 63 348 0.0 2.0 0.00 0.07 0.07 70 1015.0
20260904225522 63 348 0.0 2.0 0.00 0.07 0.07 68 1015.0
20260904225016 63 305 1.0 2.0 0.00 0.07 0.07 69 1014.9
20260904224523 63 347 0.0 3.0 0.00 0.07 0.07 68 1014.8
20260904224015 64 347 1.0 3.0 0.00 0.07 0.07 67 1014.8
20260904223516 64 15 0.0 2.0 0.00 0.07 0.07 68 1014.7
20260904223024 64 342 0.0 1.0 0.00 0.07 0.07 67 1014.7
20260904222515 64 246 0.0 0.0 0.00 0.07 0.07 67 1014.7
20260904222015 64 331 0.0 2.0 0.00 0.07 0.07 67 1014.7
20260904221525 64 331 0.0 2.0 0.00 0.07 0.07 67 1014.7
20260904221017 64 292 0.0 3.0 0.00 0.07 0.07 66 1014.7
20260904220514 64 292 1.0 3.0 0.00 0.07 0.07 68 1014.8
20260904220027 64 360 0.0 2.0 0.00 0.07 0.07 67 1014.7
20260904215518 64 276 0.0 2.0 0.00 0.07 0.07 66 1014.8
20260904215014 64 291 0.0 2.0 0.00 0.07 0.07 69 1014.8
20260904214523 64 36 0.0 2.0 0.00 0.07 0.07 67 1014.8
20260904214015 64 343 0.0 3.0 0.00 0.07 0.07 68 1014.8
20260904213515 63 360 1.0 3.0 0.00 0.07 0.07 68 1014.9
20260904213025 63 333 0.0 2.0 0.00 0.07 0.07 69 1014.8
20260904212519 63 302 1.0 2.0 0.00 0.07 0.07 69 1014.8
20260904212016 63 267 1.0 2.0 0.00 0.07 0.07 71 1014.8
20260904211524 63 5 0.0 2.0 0.00 0.07 0.07 73 1014.8
20260904211006 62 5 0.0 3.0 0.00 0.07 0.07 71 1014.8
20260904210502 62 5 1.0 3.0 0.00 0.07 0.07 74 1014.8
20260904210033 62 329 0.0 2.0 0.00 0.07 0.07 75 1014.8
20260904205512 62 322 1.0 2.0 0.00 0.07 0.07 76 1014.7
20260904205004 61 30 0.0 2.0 0.00 0.07 0.07 76 1014.7
20260904204525 61 56 0.0 2.0 0.00 0.07 0.07 78 1014.8
20260904204008 61 36 0.0 2.0 0.00 0.07 0.07 77 1014.7
20260904203503 61 67 0.0 2.0 0.00 0.07 0.07 77 1014.7
20260904203026 61 61 0.0 2.0 0.00 0.07 0.07 76 1014.7
20260904202508 61 61 0.0 3.0 0.00 0.07 0.07 78 1014.7
20260904202003 60 61 1.0 3.0 0.00 0.07 0.07 78 1014.6
20260904201526 60 35 0.0 3.0 0.00 0.07 0.07 80 1014.7
20260904201008 60 352 0.0 2.0 0.00 0.07 0.07 79 1014.6
20260904200506 60 348 0.0 3.0 0.00 0.07 0.07 79 1014.6
20260904200023 60 42 1.0 3.0 0.00 0.07 0.07 80 1014.7
20260904195506 59 19 0.0 2.0 0.00 0.07 0.07 80 1014.7
20260904195003 59 66 0.0 2.0 0.00 0.07 0.07 81 1014.7
20260904194524 59 67 0.0 0.0 0.00 0.07 0.07 80 1014.7
20260904194007 59 350 0.0 0.0 0.00 0.07 0.07 80 1014.7
20260904193503 58 346 0.0 1.0 0.00 0.07 0.07 82 1014.7
20260904193025 58 42 0.0 2.0 0.00 0.07 0.07 82 1014.7
20260904192507 58 5 0.0 2.0 0.00 0.07 0.07 82 1014.7
20260904192003 58 341 1.0 2.0 0.00 0.07 0.07 82 1014.7
20260904191526 58 62 1.0 2.0 0.00 0.07 0.07 84 1014.7
20260904191006 58 62 0.0 2.0 0.00 0.07 0.07 86 1014.6
20260904190507 58 62 0.0 3.0 0.00 0.07 0.07 85 1014.6
20260904190024 58 62 1.0 3.0 0.00 0.07 0.07 85 1014.6
20260904185507 58 62 0.0 3.0 0.00 0.07 0.07 88 1014.6
20260904185015 58 62 1.0 2.0 0.00 0.07 0.07 87 1014.5
20260904184531 58 32 0.0 2.0 0.00 0.07 0.07 91 1014.4
20260904184009 58 17 0.0 2.0 0.00 0.07 0.07 90 1014.4
20260904183514 57 17 0.0 2.0 0.00 0.07 0.07 90 1014.3
20260904183025 57 291 0.0 0.0 0.00 0.07 0.07 93 1014.3
20260904182508 57 291 0.0 0.0 0.00 0.07 0.07 92 1014.3
20260904182022 57 291 0.0 0.0 0.00 0.07 0.07 91 1014.3
20260904181542 57 291 0.0 0.0 0.00 0.07 0.07 93 1014.4
20260904181005 57 291 0.0 0.0 0.00 0.07 0.07 93 1014.4
20260904180520 57 291 0.0 0.0 0.00 0.07 0.07 94 1014.4
20260904180028 56 291 0.0 0.0 0.00 0.07 0.07 95 1014.3
20260904175505 56 291 0.0 0.0 0.00 0.07 0.07 95 1014.2
20260904175017 56 291 0.0 0.0 0.00 0.07 0.07 95 1014.2
20260904174524 56 291 0.0 0.0 0.00 0.07 0.07 95 1014.2
20260904174006 56 291 0.0 0.0 0.00 0.07 0.07 96 1014.2
20260904173514 56 291 0.0 0.0 0.00 0.07 0.07 96 1014.2
20260904173026 55 291 0.0 0.0 0.00 0.07 0.07 95 1014.1
20260904172508 55 291 0.0 0.0 0.00 0.07 0.07 95 1014.2
20260904172016 55 291 0.0 0.0 0.00 0.07 0.07 95 1014.2
20260904171527 55 291 0.0 0.0 0.00 0.07 0.07 96 1014.2
20260904171005 55 291 0.0 0.0 0.00 0.07 0.07 95 1014.2
20260904170515 55 291 0.0 0.0 0.00 0.07 0.07 95 1014.3
20260904170024 55 291 0.0 0.0 0.00 0.07 0.07 95 1014.3
20260904165512 55 291 0.0 0.0 0.00 0.07 0.07 96 1014.4
20260904165015 54 291 0.0 0.0 0.00 0.07 0.07 96 1014.3
20260904164526 54 291 0.0 0.0 0.00 0.07 0.07 96 1014.3
20260904164004 54 291 0.0 0.0 0.00 0.07 0.07 96 1014.3
20260904163516 54 291 0.0 0.0 0.00 0.07 0.07 96 1014.3
20260904163024 54 291 0.0 0.0 0.00 0.07 0.07 95 1014.4
20260904162508 53 291 0.0 0.0 0.00 0.07 0.07 95 1014.3
20260904162016 53 291 0.0 0.0 0.00 0.07 0.07 95 1014.3
20260904161524 53 291 0.0 0.0 0.00 0.07 0.07 95 1014.3
20260904161008 53 291 0.0 0.0 0.00 0.07 0.07 95 1014.3
20260904160517 53 291 0.0 0.0 0.00 0.07 0.07 95 1014.3
20260904160025 53 291 0.0 0.0 0.00 0.07 0.07 95 1014.3
20260904155506 53 291 0.0 0.0 0.00 0.07 0.07 95 1014.4
20260904155013 53 291 0.0 0.0 0.00 0.07 0.07 95 1014.2
20260904154541 53 291 0.0 0.0 0.00 0.07 0.07 95 1014.2
20260904154005 53 291 0.0 0.0 0.00 0.07 0.07 95 1014.2
20260904153514 53 291 0.0 0.0 0.01 0.07 0.07 95 1014.0
20260904153027 53 291 0.0 0.0 0.01 0.07 0.07 95 1013.9
20260904152507 53 291 0.0 0.0 0.01 0.07 0.07 95 1013.8
20260904152015 53 291 0.0 0.0 0.02 0.07 0.07 95 1013.6
20260904151523 53 291 0.0 0.0 0.03 0.07 0.07 95 1013.6
20260904151005 52 291 0.0 0.0 0.04 0.07 0.07 95 1013.6
20260904150516 52 291 0.0 0.0 0.04 0.07 0.07 95 1013.5
20260904150026 52 291 0.0 0.0 0.05 0.07 0.07 95 1013.5
20260904145504 52 291 0.0 0.0 0.05 0.07 0.07 95 1013.6
20260904145014 52 291 0.0 0.0 0.06 0.07 0.07 95 1013.4
20260904144524 52 291 0.0 0.0 0.06 0.07 0.07 95 1013.3
20260904144019 52 291 0.0 0.0 0.06 0.07 0.07 94 1013.4
20260904143516 52 291 0.0 0.0 0.05 0.06 0.06 94 1013.3
20260904143034 52 291 0.0 0.0 0.05 0.06 0.06 94 1013.3
20260904142518 52 291 0.0 0.0 0.05 0.06 0.06 94 1013.3
20260904142017 52 291 0.0 2.0 0.04 0.05 0.05 94 1013.2
20260904141526 52 291 0.0 2.0 0.03 0.04 0.04 94 1013.2
20260904141017 52 291 0.0 0.0 0.02 0.03 0.03 94 1013.2
20260904140519 52 291 0.0 0.0 0.02 0.03 0.03 94 1013.1
20260904140038 51 291 0.0 0.0 0.01 0.02 0.02 94 1013.1
20260904135518 51 291 0.0 0.0 0.01 0.02 0.02 94 1013.1
20260904135016 51 291 0.0 0.0 0.00 0.01 0.01 94 1013.0
20260904134526 51 291 0.0 0.0 0.00 0.01 0.01 94 1013.0
20260904134018 51 291 0.0 0.0 0.00 0.01 0.01 94 1012.9
20260904133518 51 291 0.0 0.0 0.00 0.01 0.01 93 1012.9
20260904133029 51 291 0.0 0.0 0.01 0.01 0.01 93 1012.8
20260904132519 51 291 0.0 0.0 0.01 0.01 0.01 93 1012.7
20260904132016 51 291 0.0 0.0 0.01 0.01 0.01 93 1012.7
20260904131530 51 291 0.0 0.0 0.01 0.01 0.01 93 1012.7
20260904131014 51 291 0.0 0.0 0.01 0.01 0.01 93 1012.7
20260904130515 51 291 0.0 0.0 0.01 0.01 0.01 92 1012.6
20260904130025 51 291 0.0 0.0 0.01 0.01 0.01 92 1012.7
20260904125518 51 291 0.0 0.0 0.01 0.01 0.01 92 1012.6
20260904125016 51 291 0.0 0.0 0.01 0.01 0.01 92 1012.5
20260904124527 52 291 0.0 0.0 0.01 0.01 0.01 92 1012.5
20260904124017 52 291 0.0 0.0 0.01 0.01 0.01 93 1012.4
20260904123517 52 291 0.0 0.0 0.01 0.01 0.01 93 1012.3
20260904123032 52 291 0.0 0.0 0.00 0.00 0.00 92 1012.2
20260904122523 52 291 0.0 0.0 0.00 0.01 0.00 92 1012.1
20260904122018 52 291 0.0 0.0 0.00 0.01 0.00 92 1012.1
20260904121527 52 291 0.0 0.0 0.00 0.01 0.00 92 1012.0
20260904121009 52 291 0.0 0.0 0.00 0.01 0.00 92 1012.0
20260904120503 52 291 0.0 0.0 0.00 0.01 0.00 92 1012.0
20260904120038 52 291 0.0 0.0 0.00 0.01 0.00 91 1012.0
20260904115508 52 291 0.0 0.0 0.00 0.01 0.00 91 1012.0
20260904115004 52 291 0.0 0.0 0.00 0.01 0.00 91 1012.0
20260904114528 52 291 0.0 0.0 0.00 0.01 0.00 91 1012.0
20260904114009 52 291 0.0 0.0 0.00 0.01 0.00 91 1011.9
20260904113504 52 291 0.0 0.0 0.00 0.01 0.00 91 1011.9
20260904113027 52 291 0.0 0.0 0.00 0.01 0.00 91 1011.8
20260904112509 52 291 0.0 0.0 0.00 0.01 0.00 91 1011.8
20260904112002 51 292 0.0 0.0 0.00 0.02 0.00 91 1011.8
20260904111526 51 292 0.0 0.0 0.00 0.02 0.00 91 1011.8
20260904111007 51 292 0.0 0.0 0.00 0.02 0.00 91 1011.8
20260904110503 51 292 0.0 0.0 0.00 0.02 0.00 91 1011.9
20260904110023 51 292 0.0 0.0 0.00 0.02 0.00 91 1011.9
20260904105508 51 292 0.0 0.0 0.00 0.02 0.00 91 1011.7
20260904105004 51 292 0.0 0.0 0.00 0.02 0.00 91 1011.8
20260904104540 51 292 0.0 0.0 0.00 0.02 0.00 91 1011.8
20260904104011 51 292 0.0 0.0 0.00 0.02 0.00 91 1011.8
20260904103503 51 292 0.0 0.0 0.00 0.02 0.00 91 1011.7
20260904103026 51 292 0.0 0.0 0.00 0.02 0.00 91 1011.8
20260904102507 51 292 0.0 0.0 0.00 0.02 0.00 91 1011.7
20260904102004 51 292 0.0 0.0 0.00 0.02 0.00 91 1011.7
20260904101524 51 292 0.0 0.0 0.00 0.02 0.00 91 1011.6
20260904101006 51 292 0.0 0.0 0.00 0.02 0.00 91 1011.6
20260904100514 51 292 0.0 0.0 0.00 0.02 0.00 91 1011.6
20260904100031 51 292 0.0 0.0 0.00 0.02 0.00 91 1011.5
20260904095508 51 292 0.0 0.0 0.00 0.02 0.00 91 1011.5
20260904095014 51 292 0.0 0.0 0.00 0.02 0.00 91 1011.4
20260904094533 51 292 0.0 0.0 0.00 0.02 0.00 91 1011.3
20260904094007 51 292 0.0 0.0 0.00 0.02 0.00 91 1011.3
20260904093516 51 292 0.0 0.0 0.00 0.02 0.00 91 1011.3
20260904093026 51 292 0.0 0.0 0.00 0.02 0.00 91 1011.4
20260904092508 51 292 0.0 0.0 0.00 0.02 0.00 91 1011.5
20260904092017 51 292 0.0 0.0 0.00 0.02 0.00 91 1011.6
20260904091527 51 292 0.0 0.0 0.00 0.02 0.00 91 1011.7
20260904091007 51 292 0.0 0.0 0.00 0.02 0.00 91 1011.7
20260904090515 51 292 0.0 0.0 0.00 0.02 0.00 91 1011.7
20260904090028 51 292 0.0 0.0 0.00 0.02 0.00 91 1011.8
20260904085508 51 292 0.0 0.0 0.00 0.02 0.00 91 1011.7
20260904085015 52 292 0.0 0.0 0.00 0.02 0.00 91 1011.8
20260904084533 52 292 0.0 0.0 0.00 0.02 0.00 91 1011.9
20260904084008 52 292 0.0 0.0 0.00 0.02 0.00 91 1011.9
20260904083517 52 292 0.0 0.0 0.00 0.02 0.00 91 1012.0
20260904083031 52 292 0.0 0.0 0.00 0.02 0.00 91 1012.0
20260904082506 52 292 0.0 0.0 0.00 0.02 0.00 91 1012.0
20260904082016 52 292 0.0 0.0 0.00 0.02 0.00 91 1012.0
20260904081526 52 292 0.0 0.0 0.00 0.02 0.00 91 1012.0
20260904081013 52 292 0.0 0.0 0.00 0.02 0.00 90 1011.9
20260904080518 52 292 0.0 0.0 0.00 0.02 0.00 90 1011.9
20260904080033 52 292 0.0 0.0 0.00 0.02 0.00 90 1011.9
20260904075508 52 292 0.0 0.0 0.00 0.02 0.00 90 1011.9
20260904075017 52 292 0.0 0.0 0.00 0.02 0.00 90 1011.9
20260904074527 52 292 0.0 0.0 0.00 0.02 0.00 90 1011.9
20260904074006 52 292 0.0 0.0 0.00 0.02 0.00 90 1011.9
20260904073516 52 292 0.0 0.0 0.00 0.02 0.00 90 1011.9
20260904073026 52 292 0.0 0.0 0.00 0.02 0.00 90 1011.9
20260904072507 52 292 0.0 0.0 0.00 0.02 0.00 90 1011.8
20260904072015 52 292 0.0 0.0 0.00 0.02 0.00 90 1011.8
20260904071524 52 292 0.0 0.0 0.00 0.02 0.00 89 1011.8
20260904071008 52 292 0.0 0.0 0.00 0.02 0.00 89 1011.8
20260904070516 52 292 0.0 0.0 0.00 0.02 0.00 89 1011.6
20260904070027 52 292 0.0 0.0 0.00 0.02 0.00 89 1011.6
20260904065509 52 292 0.0 0.0 0.00 0.02 0.02 89 1011.6
20260904065015 52 292 0.0 0.0 0.00 0.02 0.02 89 1011.5
20260904064527 52 292 0.0 0.0 0.00 0.02 0.02 89 1011.5
20260904064007 53 292 0.0 0.0 0.00 0.02 0.02 88 1011.5
20260904063514 53 292 0.0 0.0 0.00 0.02 0.02 88 1011.5
20260904063031 53 292 0.0 0.0 0.00 0.02 0.02 88 1011.5
20260904062507 53 292 0.0 0.0 0.00 0.02 0.02 88 1011.4
20260904062014 53 292 0.0 0.0 0.00 0.02 0.02 88 1011.4
20260904061523 53 292 0.0 0.0 0.00 0.02 0.02 88 1011.4
20260904061010 53 292 0.0 0.0 0.00 0.02 0.02 87 1011.4
20260904060516 53 292 0.0 0.0 0.00 0.02 0.02 87 1011.4
20260904060025 53 292 0.0 0.0 0.00 0.02 0.02 87 1011.4
20260904055517 53 292 0.0 0.0 0.00 0.02 0.02 87 1011.4
20260904055017 53 292 0.0 0.0 0.00 0.02 0.02 87 1011.3
20260904054538 53 292 0.0 0.0 0.00 0.02 0.02 87 1011.3
20260904054018 54 292 0.0 0.0 0.00 0.02 0.02 87 1011.3
20260904053518 54 292 0.0 0.0 0.00 0.02 0.02 87 1011.4
20260904053029 54 292 0.0 0.0 0.00 0.02 0.02 87 1011.3
20260904052518 54 292 0.0 0.0 0.00 0.02 0.02 87 1011.3
20260904052016 54 292 0.0 0.0 0.00 0.02 0.02 87 1011.4
20260904051528 54 292 0.0 0.0 0.00 0.02 0.02 87 1011.5
20260904051017 54 292 0.0 0.0 0.00 0.02 0.02 86 1011.5
20260904050519 54 292 0.0 0.0 0.00 0.02 0.02 86 1011.4
20260904050027 54 292 0.0 0.0 0.00 0.02 0.02 86 1011.4
20260904045519 54 292 0.0 0.0 0.00 0.02 0.02 86 1011.5
20260904045016 54 292 0.0 0.0 0.00 0.02 0.02 86 1011.4
20260904044531 54 292 0.0 0.0 0.00 0.02 0.02 86 1011.5
20260904044019 54 292 0.0 0.0 0.00 0.02 0.02 86 1011.5
20260904043515 54 292 0.0 0.0 0.00 0.02 0.02 85 1011.5
20260904043026 54 292 0.0 0.0 0.00 0.02 0.02 85 1011.5
20260904042518 55 292 0.0 0.0 0.00 0.02 0.02 85 1011.4
20260904042020 55 292 0.0 0.0 0.00 0.02 0.02 85 1011.4
20260904041526 55 292 0.0 0.0 0.00 0.02 0.02 85 1011.4
20260904041016 55 292 0.0 0.0 0.00 0.02 0.02 85 1011.3
20260904040520 55 292 0.0 0.0 0.00 0.02 0.02 85 1011.3
20260904040035 55 292 0.0 0.0 0.00 0.02 0.02 84 1011.3
20260904035518 55 292 0.0 0.0 0.00 0.02 0.02 84 1011.3
20260904035015 56 292 0.0 0.0 0.00 0.02 0.02 84 1011.2
20260904034533 56 292 0.0 0.0 0.00 0.02 0.02 83 1011.2
20260904034017 56 292 0.0 0.0 0.00 0.02 0.02 83 1011.1
20260904033516 56 292 0.0 0.0 0.00 0.02 0.02 83 1011.1
20260904033026 56 292 0.0 0.0 0.00 0.02 0.02 82 1011.0
20260904032518 56 292 0.0 0.0 0.00 0.02 0.02 81 1011.0
20260904032017 56 292 0.0 0.0 0.00 0.02 0.02 81 1010.9
20260904031510 56 292 0.0 0.0 0.00 0.02 0.02 81 1010.9
20260904031004 56 292 0.0 0.0 0.00 0.02 0.02 81 1010.9
20260904030503 57 292 0.0 0.0 0.00 0.02 0.02 81 1010.8
20260904030012 57 292 0.0 0.0 0.00 0.02 0.02 81 1010.8
20260904025506 57 292 0.0 0.0 0.00 0.02 0.02 81 1010.8
20260904025003 57 292 0.0 0.0 0.00 0.02 0.02 81 1010.6
20260904024511 57 292 0.0 0.0 0.00 0.02 0.02 80 1010.5
20260904024007 58 292 0.0 0.0 0.00 0.02 0.02 79 1010.5
20260904023506 58 292 0.0 0.0 0.00 0.02 0.02 79 1010.4
20260904023012 58 292 0.0 0.0 0.00 0.02 0.02 78 1010.4